Weather History for KNEW - March, 2014

Change the Weather History Date:

Saturday, March 22, 2014

  Actual Average Record
Temperature  
Mean Temperature 69 °F 64 °F  
Max Temperature 78 °F 73 °F 83 °F (1991)
Min Temperature 60 °F 55 °F 30 °F (1965)
Degree Days  
Heating Degree Days 0 3  
Month to date heating degree days 150 110  
Since 1 July heating degree days 1503 1219  
Cooling Degree Days 4 2  
Month to date cooling degree days 18 39  
Year to date cooling degree days 42 76  
Growing Degree Days 18 (Base 50)    
Moisture  
Dew Point 62 °F    
Average Humidity 77    
Maximum Humidity 93    
Minimum Humidity 60    
Precipitation  
Precipitation 0.00 in 0.14 in 3.36 in (2012)
Month to date precipitation 0.99 3.19  
Year to date precipitation 10.02 13.64  
Snow  
Snow 0.00 in - - ()
Month to date snowfall 0.0  
Since 1 July snowfall T  
Snow Depth 0.00 in    
Sea Level Pressure  
Sea Level Pressure 30.01 in    
Wind  
Wind Speed 6 mph (East)    
Max Wind Speed 14 mph    
Max Gust Speed 17 mph    
Visibility 7 miles    
Events      
T = Trace of Precipitation, MM = Missing Value Source: NWS Daily Summary

Daily Weather History Graph

Daily Weather History Graph

Search for Another Location

Airport or City:

Trip Planner

Search our weather history database for the weather conditions in past years. The results will help you decide how hot, cold, wet, or windy it might be!

Date:

Astronomy

Mar. 22, 2014 Rise Set
Actual Time 7:01 AM CDT 7:12 PM CDT
Civil Twilight 6:37 AM CDT 7:36 PM CDT
Nautical Twilight 6:09 AM CDT 8:04 PM CDT
Astronomical Twilight 5:41 AM CDT 8:32 PM CDT
Moon 12:12 AM CDT (3/22) 11:05 AM CDT (3/22)
Length of Visible Light 12h 59m
Length of Day
12h 11m
Waning Gibbous, 65% of the Moon is Illuminated
Mar 22
Waning Gibbous
Mar 23
Last Quarter
Mar 30
New
Apr 7
First Quarter
Apr 15
Full

Hourly Weather History & Observations

Time (CDT) Temp. Dew Point Humidity Pressure Visibility Wind Dir Wind Speed Gust Speed Precip Events Conditions
12:53 AM 63.0 °F 59.0 °F 87% 30.01 in 7.0 mi South 5.8 mph - N/A   Clear
1:53 AM 61.0 °F 57.9 °F 90% 30.00 in 7.0 mi South 6.9 mph - N/A   Clear
2:53 AM 62.1 °F 59.0 °F 90% 29.99 in 6.0 mi Calm Calm - N/A   Partly Cloudy
3:53 AM 63.0 °F 60.1 °F 90% 30.00 in 5.0 mi East 3.5 mph - N/A   Mostly Cloudy
4:53 AM 62.1 °F 61.0 °F 96% 29.99 in 3.0 mi ESE 3.5 mph - N/A   Scattered Clouds
5:53 AM 62.1 °F 61.0 °F 96% 30.00 in 3.0 mi East 4.6 mph - N/A   Mostly Cloudy
6:26 AM 62.1 °F 60.1 °F 93% 30.02 in 2.5 mi ENE 4.6 mph - N/A   Partly Cloudy
6:53 AM 63.0 °F 62.1 °F 97% 30.01 in 2.5 mi East 4.6 mph - N/A   Overcast
7:21 AM 63.0 °F 62.1 °F 97% 30.03 in 1.8 mi East 5.8 mph - N/A   Overcast
7:36 AM 63.0 °F 62.1 °F 97% 30.03 in 2.0 mi ENE 6.9 mph - N/A   Overcast
7:53 AM 63.0 °F 62.1 °F 97% 30.02 in 3.0 mi East 6.9 mph - N/A   Overcast
8:53 AM 64.9 °F 63.0 °F 93% 30.04 in 3.0 mi East 5.8 mph - N/A   Overcast
9:53 AM 66.9 °F 63.0 °F 87% 30.05 in 5.0 mi East 5.8 mph - N/A   Scattered Clouds
10:53 AM 69.1 °F 63.0 °F 81% 30.05 in 9.0 mi ENE 6.9 mph - N/A   Mostly Cloudy
11:08 AM 70.0 °F 63.0 °F 78% 30.07 in 10.0 mi East 6.9 mph - N/A   Mostly Cloudy
11:21 AM 70.0 °F 63.0 °F 78% 30.06 in 10.0 mi ENE 6.9 mph - N/A   Mostly Cloudy
11:53 AM 71.1 °F 63.0 °F 75% 30.05 in 10.0 mi ENE 4.6 mph - N/A   Overcast
12:19 PM 70.0 °F 64.0 °F 81% 30.06 in 10.0 mi NE 8.1 mph - N/A   Overcast
12:53 PM 72.0 °F 63.0 °F 73% 30.03 in 10.0 mi NE 8.1 mph - N/A   Scattered Clouds
1:53 PM 73.9 °F 62.1 °F 66% 30.01 in 10.0 mi NNE 5.8 mph - N/A   Clear
2:53 PM 75.0 °F 59.0 °F 57% 29.99 in 10.0 mi NNE 3.5 mph - N/A   Mostly Cloudy
3:53 PM 75.9 °F 61.0 °F 60% 29.97 in 10.0 mi NE 4.6 mph - N/A   Mostly Cloudy
4:53 PM 75.9 °F 63.0 °F 64% 29.97 in 10.0 mi SE 10.4 mph - N/A   Partly Cloudy
5:53 PM 72.0 °F 62.1 °F 71% 29.99 in 10.0 mi SSE 15.0 mph - N/A   Clear
6:53 PM 71.1 °F 61.0 °F 70% 29.98 in 10.0 mi SSE 11.5 mph - N/A   Clear
7:53 PM 69.1 °F 63.0 °F 81% 30.00 in 10.0 mi SSE 8.1 mph - N/A   Clear
8:53 PM 69.1 °F 64.0 °F 84% 30.00 in 10.0 mi SSE 6.9 mph - N/A   Clear
9:53 PM 68.0 °F 64.0 °F 87% 30.01 in 7.0 mi South 9.2 mph - N/A   Clear
10:53 PM 68.0 °F 64.9 °F 90% 30.01 in 8.0 mi South 10.4 mph - N/A   Clear
11:53 PM 66.9 °F 64.9 °F 93% 29.99 in 6.0 mi South 6.9 mph - N/A   Clear